VOI853 MMMX-MMGL

Flight info

Callsign VOI853
Flight time 0h 48m
Altitude 32000
Route OVAG3A/05L OVAGO UT123 IGSON IGSON1B
Aircraft A320/M-SDE3FGHIRWY/LB1

Departure

Time 2026-05-08 02:45
Airport Mexico City Benito Juárez International Airport (MMMX)

Arrival

Time 2026-05-08 03:34
Airport Guadalajara International Airport (MMGL)
Time Latitude Longitude Altitude Speed Heading
2026-05-08 02:21 19.43317 -99.08471 7303 ft 0 kts 329°
2026-05-08 02:33 19.43297 -99.08458 7266 ft 4 kts 324°
2026-05-08 02:33 19.43276 -99.08440 7303 ft 4 kts 316°
2026-05-08 02:33 19.43259 -99.08419 7303 ft 4 kts 293°
2026-05-08 02:34 19.43256 -99.08397 7303 ft 2 kts 239°
2026-05-08 02:34 19.43259 -99.08392 7303 ft 0 kts 239°
2026-05-08 02:37 19.43256 -99.08397 7303 ft 5 kts 239°
2026-05-08 02:37 19.43205 -99.08484 7303 ft 20 kts 237°
2026-05-08 02:37 19.43154 -99.08570 7303 ft 9 kts 238°
2026-05-08 02:38 19.43122 -99.08625 7303 ft 9 kts 240°
2026-05-08 02:38 19.43094 -99.08685 7303 ft 9 kts 244°
2026-05-08 02:38 19.43058 -99.08751 7303 ft 12 kts 239°
2026-05-08 02:38 19.43010 -99.08837 7303 ft 15 kts 239°
2026-05-08 02:39 19.42951 -99.08941 7303 ft 18 kts 238°
2026-05-08 02:39 19.42935 -99.08970 7303 ft 0 kts 239°
2026-05-08 02:40 19.42927 -99.08983 7303 ft 9 kts 238°
2026-05-08 02:40 19.42874 -99.09036 7303 ft 0 kts 209°
2026-05-08 02:41 19.42872 -99.09037 7303 ft 1 kts 209°
2026-05-08 02:41 19.42829 -99.09064 7303 ft 14 kts 211°
2026-05-08 02:41 19.42773 -99.09024 7303 ft 14 kts 72°
2026-05-08 02:42 19.42791 -99.08992 7303 ft 1 kts 58°
2026-05-08 02:42 19.42792 -99.08990 7303 ft 0 kts 58°
2026-05-08 02:44 19.42795 -99.08986 7303 ft 3 kts 58°
2026-05-08 02:44 19.42894 -99.08809 7303 ft 62 kts 59°
2026-05-08 02:44 19.43226 -99.08221 7303 ft 121 kts 59°
2026-05-08 02:44 19.43740 -99.07305 7303 ft 167 kts 59°
2026-05-08 02:45 19.44405 -99.06136 7439 ft 199 kts 56°
2026-05-08 02:45 19.45140 -99.04829 7849 ft 219 kts 56°
2026-05-08 02:45 19.45964 -99.03368 8342 ft 237 kts 59°
2026-05-08 02:45 19.46790 -99.01895 9253 ft 232 kts 57°
2026-05-08 02:46 19.47624 -99.00406 9656 ft 237 kts 60°
2026-05-08 02:46 19.48483 -98.98870 10063 ft 247 kts 60°
2026-05-08 02:46 19.49334 -98.97269 10565 ft 251 kts 71°
2026-05-08 02:46 19.49490 -98.95455 11064 ft 251 kts 109°
2026-05-08 02:47 19.48598 -98.93883 11427 ft 259 kts 142°
2026-05-08 02:47 19.46932 -98.93130 11751 ft 268 kts 179°
2026-05-08 02:47 19.45132 -98.93562 12314 ft 271 kts 212°
2026-05-08 02:47 19.43783 -98.94952 13008 ft 273 kts 233°
2026-05-08 02:48 19.42771 -98.96662 13680 ft 275 kts 239°
2026-05-08 02:48 19.41843 -98.98444 14306 ft 278 kts 240°
2026-05-08 02:48 19.40878 -99.00221 14881 ft 279 kts 237°
2026-05-08 02:48 19.40008 -99.02117 15159 ft 296 kts 253°
2026-05-08 02:49 19.39736 -99.04340 15435 ft 311 kts 263°
2026-05-08 02:49 19.39546 -99.06640 15912 ft 315 kts 260°
2026-05-08 02:49 19.39139 -99.08930 16421 ft 318 kts 257°
2026-05-08 02:49 19.38693 -99.11243 16908 ft 322 kts 257°
2026-05-08 02:50 19.38237 -99.13584 17427 ft 326 kts 256°
2026-05-08 02:50 19.37773 -99.15940 17948 ft 329 kts 257°
2026-05-08 02:50 19.37305 -99.18319 18472 ft 331 kts 257°
2026-05-08 02:50 19.36838 -99.20687 18908 ft 334 kts 257°
2026-05-08 02:51 19.36361 -99.23105 19342 ft 336 kts 256°
2026-05-08 02:51 19.35879 -99.25541 19772 ft 339 kts 256°
2026-05-08 02:51 19.35392 -99.27992 20204 ft 341 kts 256°
2026-05-08 02:51 19.34901 -99.30465 20635 ft 344 kts 256°
2026-05-08 02:52 19.34407 -99.32949 21049 ft 346 kts 256°
2026-05-08 02:52 19.33912 -99.35452 21465 ft 349 kts 255°
2026-05-08 02:52 19.33415 -99.37974 22014 ft 351 kts 255°
2026-05-08 02:52 19.32915 -99.40511 22456 ft 353 kts 255°
2026-05-08 02:53 19.32410 -99.43066 22920 ft 355 kts 255°
2026-05-08 02:53 19.31899 -99.45634 23357 ft 358 kts 255°
2026-05-08 02:53 19.31383 -99.48212 23880 ft 358 kts 254°
2026-05-08 02:53 19.30867 -99.50788 24299 ft 358 kts 255°
2026-05-08 02:54 19.30351 -99.53371 24662 ft 360 kts 255°
2026-05-08 02:54 19.29833 -99.55972 25001 ft 362 kts 255°
2026-05-08 02:54 19.29314 -99.58586 25335 ft 364 kts 255°
2026-05-08 02:54 19.28789 -99.61219 25667 ft 366 kts 255°
2026-05-08 02:55 19.28261 -99.63867 26002 ft 369 kts 255°
2026-05-08 02:55 19.27191 -99.69211 26606 ft 373 kts 255°
2026-05-08 02:55 19.26648 -99.71907 26910 ft 376 kts 255°
2026-05-08 02:56 19.26104 -99.74619 27194 ft 378 kts 255°
2026-05-08 02:56 19.25556 -99.77350 27485 ft 380 kts 256°
2026-05-08 02:56 19.25013 -99.80063 27769 ft 383 kts 256°
2026-05-08 02:56 19.24457 -99.82829 27992 ft 387 kts 256°
2026-05-08 02:57 19.23891 -99.85642 28086 ft 395 kts 255°
2026-05-08 02:57 19.22723 -99.91427 28266 ft 409 kts 255°
2026-05-08 02:57 19.22123 -99.94401 28381 ft 416 kts 255°
2026-05-08 02:58 19.21514 -99.97415 28508 ft 422 kts 255°
2026-05-08 02:58 19.20268 -100.03582 28745 ft 434 kts 256°
2026-05-08 02:58 19.19639 -100.06719 28977 ft 438 kts 256°
2026-05-08 02:59 19.19029 -100.09884 29251 ft 441 kts 259°
2026-05-08 02:59 19.18808 -100.13141 29469 ft 447 kts 269°
2026-05-08 02:59 19.19136 -100.16427 29752 ft 452 kts 279°
2026-05-08 02:59 19.19999 -100.19637 30025 ft 457 kts 286°
2026-05-08 03:00 19.21028 -100.22826 30285 ft 458 kts 286°
2026-05-08 03:00 19.22049 -100.26005 30679 ft 455 kts 286°
2026-05-08 03:00 19.23059 -100.29168 31040 ft 453 kts 286°
2026-05-08 03:00 19.24060 -100.32324 31477 ft 451 kts 285°
2026-05-08 03:01 19.25052 -100.35464 31810 ft 450 kts 285°
2026-05-08 03:01 19.27025 -100.41703 31928 ft 447 kts 285°
2026-05-08 03:02 19.29005 -100.47973 31883 ft 446 kts 285°
2026-05-08 03:02 19.30618 -100.53049 31884 ft 433 kts 285°
2026-05-08 03:03 19.32522 -100.59077 31866 ft 430 kts 285°
2026-05-08 03:03 19.34415 -100.65072 31871 ft 429 kts 285°
2026-05-08 03:04 19.36302 -100.71061 31900 ft 428 kts 285°
2026-05-08 03:04 19.38258 -100.77021 31896 ft 429 kts 287°
2026-05-08 03:05 19.40315 -100.82902 31901 ft 429 kts 287°
2026-05-08 03:05 19.42397 -100.88829 31909 ft 429 kts 287°
2026-05-08 03:06 19.44445 -100.94765 31909 ft 429 kts 287°
2026-05-08 03:06 19.46478 -101.00706 31938 ft 429 kts 287°
2026-05-08 03:07 19.48508 -101.06643 31955 ft 428 kts 287°
2026-05-08 03:07 19.50539 -101.12579 31957 ft 428 kts 287°
2026-05-08 03:08 19.52570 -101.18503 31959 ft 427 kts 287°
2026-05-08 03:08 19.54592 -101.24433 31958 ft 427 kts 287°
2026-05-08 03:09 19.56615 -101.30354 31959 ft 427 kts 287°
2026-05-08 03:09 19.58628 -101.36240 31991 ft 427 kts 286°
2026-05-08 03:10 19.60640 -101.42160 31991 ft 426 kts 286°
2026-05-08 03:10 19.62644 -101.48074 32007 ft 426 kts 286°
2026-05-08 03:11 19.64650 -101.53982 32008 ft 426 kts 286°
2026-05-08 03:11 19.66663 -101.59891 32007 ft 426 kts 286°
2026-05-08 03:12 19.68669 -101.65808 32019 ft 426 kts 286°
2026-05-08 03:12 19.70674 -101.71718 32007 ft 426 kts 286°
2026-05-08 03:13 19.72671 -101.77640 32011 ft 426 kts 286°
2026-05-08 03:13 19.74659 -101.83560 32019 ft 426 kts 286°
2026-05-08 03:14 19.76651 -101.89481 32017 ft 426 kts 286°
2026-05-08 03:14 19.78645 -101.95397 31998 ft 425 kts 286°
2026-05-08 03:14 19.79640 -101.98341 31479 ft 422 kts 286°
2026-05-08 03:15 19.80630 -102.01273 30434 ft 422 kts 285°
2026-05-08 03:15 19.81621 -102.04224 29114 ft 427 kts 285°
2026-05-08 03:15 19.82619 -102.07205 27937 ft 428 kts 286°
2026-05-08 03:15 19.83615 -102.10169 26964 ft 424 kts 286°
2026-05-08 03:16 19.84607 -102.13108 26029 ft 420 kts 286°
2026-05-08 03:16 19.85588 -102.16017 25133 ft 417 kts 286°
2026-05-08 03:16 19.86559 -102.18909 24262 ft 414 kts 286°
2026-05-08 03:16 19.87518 -102.21779 23449 ft 411 kts 286°
2026-05-08 03:17 19.88466 -102.24631 22490 ft 407 kts 286°
2026-05-08 03:17 19.89397 -102.27427 22042 ft 392 kts 286°
2026-05-08 03:17 19.90286 -102.30075 21894 ft 368 kts 287°
2026-05-08 03:17 19.91132 -102.32589 21749 ft 356 kts 287°
2026-05-08 03:18 19.91950 -102.35033 21628 ft 346 kts 286°
2026-05-08 03:18 19.92745 -102.37413 21414 ft 338 kts 286°
2026-05-08 03:18 19.93523 -102.39756 21145 ft 335 kts 286°
2026-05-08 03:18 19.94296 -102.42081 20836 ft 334 kts 286°
2026-05-08 03:19 19.95067 -102.44402 20503 ft 333 kts 287°
2026-05-08 03:19 19.95837 -102.46717 20183 ft 331 kts 287°
2026-05-08 03:19 19.96592 -102.48988 19899 ft 330 kts 287°
2026-05-08 03:19 19.97357 -102.51284 19608 ft 329 kts 287°
2026-05-08 03:20 19.98121 -102.53572 19312 ft 328 kts 287°
2026-05-08 03:20 19.98881 -102.55853 19016 ft 328 kts 287°
2026-05-08 03:20 19.99711 -102.58105 18737 ft 328 kts 295°
2026-05-08 03:20 20.00930 -102.60154 18480 ft 328 kts 310°
2026-05-08 03:21 20.02521 -102.61934 17801 ft 340 kts 313°
2026-05-08 03:21 20.04200 -102.63739 17423 ft 345 kts 314°
2026-05-08 03:21 20.05914 -102.65562 17112 ft 349 kts 314°
2026-05-08 03:21 20.07635 -102.67387 16644 ft 351 kts 314°
2026-05-08 03:22 20.09392 -102.69250 15921 ft 360 kts 315°
2026-05-08 03:22 20.11143 -102.71108 15469 ft 360 kts 315°
2026-05-08 03:22 20.12906 -102.72983 15137 ft 355 kts 315°
2026-05-08 03:22 20.14619 -102.74808 15117 ft 341 kts 315°
2026-05-08 03:23 20.16245 -102.76542 14869 ft 325 kts 315°
2026-05-08 03:23 20.17853 -102.78256 14190 ft 328 kts 314°
2026-05-08 03:23 20.19473 -102.79978 13581 ft 327 kts 315°
2026-05-08 03:23 20.21079 -102.81685 12962 ft 325 kts 314°
2026-05-08 03:24 20.22658 -102.83366 12440 ft 318 kts 314°
2026-05-08 03:24 20.24212 -102.85022 11951 ft 312 kts 313°
2026-05-08 03:24 20.25698 -102.86605 11825 ft 293 kts 313°
2026-05-08 03:24 20.27096 -102.88095 11693 ft 276 kts 314°
2026-05-08 03:25 20.28415 -102.89503 11479 ft 264 kts 312°
2026-05-08 03:25 20.29703 -102.90879 11227 ft 260 kts 313°
2026-05-08 03:25 20.30976 -102.92242 10719 ft 262 kts 311°
2026-05-08 03:25 20.32258 -102.93617 10290 ft 261 kts 312°
2026-05-08 03:26 20.33531 -102.94978 9902 ft 255 kts 311°
2026-05-08 03:26 20.34761 -102.96292 9768 ft 246 kts 312°
2026-05-08 03:26 20.35957 -102.97573 9537 ft 242 kts 312°
2026-05-08 03:26 20.37130 -102.98827 9411 ft 235 kts 311°
2026-05-08 03:27 20.38272 -103.00046 9282 ft 229 kts 313°
2026-05-08 03:27 20.39348 -103.01247 9147 ft 219 kts 306°
2026-05-08 03:27 20.40143 -103.02606 8912 ft 216 kts 294°
2026-05-08 03:27 20.40777 -103.04037 8793 ft 213 kts 292°
2026-05-08 03:28 20.41362 -103.05420 8819 ft 195 kts 292°
2026-05-08 03:28 20.41893 -103.06679 8774 ft 178 kts 292°
2026-05-08 03:28 20.42385 -103.07845 8632 ft 172 kts 291°
2026-05-08 03:28 20.42874 -103.09006 8453 ft 172 kts 292°
2026-05-08 03:29 20.43371 -103.10184 8257 ft 176 kts 292°
2026-05-08 03:29 20.43874 -103.11377 8046 ft 176 kts 293°
2026-05-08 03:29 20.44372 -103.12558 7968 ft 174 kts 293°
2026-05-08 03:29 20.44865 -103.13727 7773 ft 171 kts 293°
2026-05-08 03:30 20.45835 -103.16028 7396 ft 170 kts 293°
2026-05-08 03:30 20.46791 -103.18296 7031 ft 163 kts 293°
2026-05-08 03:31 20.47684 -103.20416 6700 ft 153 kts 293°
2026-05-08 03:31 20.48550 -103.22475 6357 ft 152 kts 293°
2026-05-08 03:32 20.48987 -103.23512 6193 ft 153 kts 293°
2026-05-08 03:32 20.49427 -103.24557 6036 ft 151 kts 292°
2026-05-08 03:32 20.49862 -103.25583 5846 ft 154 kts 292°
2026-05-08 03:32 20.50293 -103.26612 5636 ft 150 kts 289°
2026-05-08 03:33 20.50726 -103.27629 5373 ft 152 kts 293°
2026-05-08 03:33 20.51152 -103.28645 5192 ft 150 kts 292°
2026-05-08 03:33 20.51573 -103.29660 5022 ft 146 kts 292°
2026-05-08 03:33 20.51924 -103.30510 5017 ft 101 kts 295°
2026-05-08 03:34 20.52161 -103.31064 5023 ft 71 kts 294°
2026-05-08 03:34 20.52340 -103.31447 5022 ft 46 kts 306°
2026-05-08 03:34 20.52513 -103.31587 5021 ft 15 kts 343°
2026-05-08 03:34 20.52522 -103.31590 5021 ft 0 kts 343°
2026-05-08 03:36 20.52532 -103.31593 5021 ft 4 kts 346°
2026-05-08 03:36 20.52583 -103.31580 5021 ft 11 kts 24°
2026-05-08 03:37 20.52660 -103.31545 5021 ft 13 kts 23°
2026-05-08 03:37 20.52745 -103.31500 5021 ft 14 kts 39°
2026-05-08 03:37 20.52743 -103.31402 5020 ft 15 kts 113°
2026-05-08 03:37 20.52698 -103.31295 5020 ft 16 kts 114°
2026-05-08 03:38 20.52648 -103.31181 5020 ft 18 kts 114°
2026-05-08 03:38 20.52597 -103.31056 5018 ft 19 kts 113°
2026-05-08 03:38 20.52537 -103.30926 5018 ft 20 kts 130°
2026-05-08 03:38 20.52499 -103.30821 5020 ft 16 kts 101°
2026-05-08 03:39 20.52502 -103.30706 5015 ft 16 kts 57°
2026-05-08 03:39 20.52539 -103.30596 5020 ft 15 kts 101°
2026-05-08 03:39 20.52457 -103.30532 5019 ft 15 kts 140°
2026-05-08 03:39 20.52420 -103.30435 5020 ft 13 kts 76°
2026-05-08 03:40 20.52452 -103.30349 5018 ft 13 kts 107°
2026-05-08 03:40 20.52421 -103.30253 5016 ft 14 kts 110°
2026-05-08 03:40 20.52388 -103.30153 5017 ft 15 kts 109°
2026-05-08 03:40 20.52352 -103.30049 5018 ft 15 kts 111°
2026-05-08 03:41 20.52311 -103.29942 5015 ft 16 kts 113°
2026-05-08 03:41 20.52300 -103.29837 5015 ft 9 kts 42°
2026-05-08 03:41 20.52329 -103.29830 5016 ft 4 kts 22°
2026-05-08 03:41 20.52357 -103.29818 5019 ft 0 kts 21°